RH
4 5 5 5 5 6 6 6 7 7 7 7 8 8 9 9 9 10 10 10 11 11 12 12 12 12 12 13 13 13 13 14 14 14 14 14 14 14 14 14 14 13 13 13 13 13 12 12 12 11 11 11 10 10 10 9 9 9 9 9 9 9 9 8 7 7 6 6 5 5 5 4 5 6 8 12 18 26 34 41 46 49 48 45 42
5 5 6 6 6 7 7 7 8 8 9 9 10 10 11 11 12 12 13 13 14 14 15 15 15 16 16 17 17 17 17 17 17 18 18 19 19 18 18 18 18 18 17 17 16 16 16 15 15 15 15 14 14 13 13 12 12 12 11 11 11 11 11 11 10 10 9 8 8 7 7 7 6 5 5 5 6 8 12 18 26 35 43 49 51
6 6 7 7 7 8 8 9 10 11 11 12 12 13 14 14 15 15 16 17 18 18 18 19 19 20 20 21 21 21 22 22 22 22 23 23 22 22 23 23 23 23 23 22 21 20 19 19 18 18 19 18 18 17 16 16 15 15 15 14 14 14 14 13 13 13 12 12 11 10 10 10 9 8 8 7 6 5 5 6 8 12 19 28 38
8 8 8 8 9 9 10 12 13 14 15 15 16 17 18 18 19 20 20 21 21 22 22 22 23 23 24 25 25 25 26 26 26 27 27 27 26 27 28 29 29 29 28 27 27 26 24 23 23 22 22 22 22 21 20 20 19 19 19 18 18 17 17 16 16 16 15 15 14 14 13 12 12 12 11 11 9 8 7 6 6 5 6 8 13
10 10 10 10 10 11 13 15 16 18 18 18 19 20 20 21 21 21 22 22 23 23 23 24 24 24 24 25 25 25 26 27 27 28 28 28 28 30 31 32 33 34 34 33 32 31 30 29 29 28 28 26 26 25 24 24 23 23 22 22 22 21 21 20 20 19 18 18 17 17 16 15 14 14 14 15 14 13 11 9 8 7 6 6 6
13 13 13 13 14 15 17 18 18 19 19 19 19 19 19 20 20 20 20 20 21 21 22 22 22 23 23 24 25 26 27 27 28 29 28 28 29 30 31 33 35 36 38 38 37 37 36 35 35 35 34 33 32 31 30 29 29 28 27 26 26 26 25 25 24 24 23 21 20 20 19 18 17 17 17 17 17 17 15 14 12 11 10 8 7
15 16 16 16 17 18 18 18 18 18 18 18 18 18 18 17 18 18 19 20 22 23 24 25 26 28 30 31 32 33 33 33 34 34 33 33 33 34 35 37 38 40 42 42 42 42 41 39 39 38 38 38 38 36 36 35 35 34 33 32 31 31 30 30 30 29 28 27 25 24 23 22 21 20 19 19 19 19 19 18 17 16 14 13 12
16 17 18 18 18 18 17 17 17 17 16 16 17 17 19 20 22 24 26 28 30 32 35 36 37 39 39 39 39 40 39 39 40 39 39 41 41 41 43 44 45 46 47 47 47 47 46 46 45 44 44 43 42 42 42 42 41 40 39 38 37 36 35 35 35 34 34 33 31 30 28 27 25 24 23 22 20 20 22 23 22 20 19 17 16
17 17 18 18 17 16 16 16 16 17 19 21 23 26 28 30 33 35 38 41 43 44 45 44 44 44 42 42 43 43 44 44 44 44 46 48 49 49 50 51 51 52 52 52 53 53 53 53 51 50 49 47 46 45 45 45 44 43 42 41 40 40 39 38 38 38 38 38 37 36 35 33 32 30 29 27 26 24 23 25 26 25 23 22 20
17 17 17 16 16 16 18 21 24 27 31 34 36 38 39 41 43 45 47 51 51 50 47 46 46 45 44 45 45 45 47 48 48 49 52 54 54 54 56 56 56 55 54 53 52 51 50 48 47 45 44 43 42 42 41 41 40 39 39 38 38 38 37 38 38 38 39 40 41 41 40 40 39 39 37 36 34 31 28 28 31 31 29 27 25
16 15 15 17 20 24 29 34 39 42 44 45 45 46 48 50 51 50 52 55 55 52 48 47 48 47 46 47 47 47 50 51 51 51 53 55 55 56 56 54 52 50 47 45 43 41 40 38 38 37 36 36 35 34 34 33 32 32 31 31 30 30 31 32 33 34 37 39 42 44 45 46 46 48 47 45 43 41 38 36 36 37 36 33 30
17 19 23 28 34 40 45 48 50 50 51 51 52 54 55 56 55 52 54 58 57 54 52 51 51 51 51 51 50 50 51 50 50 50 51 51 51 50 48 46 44 42 40 38 36 34 32 32 32 31 30 29 27 27 26 25 24 23 23 23 22 21 22 24 26 29 33 38 43 48 51 53 55 58 58 56 53 50 48 45 44 44 43 40 37
27 32 37 43 48 53 55 55 55 55 57 60 61 61 59 58 57 55 56 60 60 57 56 56 55 55 55 54 52 51 50 50 49 47 47 47 45 43 42 40 38 36 33 30 27 25 24 23 22 21 20 19 18 17 16 16 16 16 16 16 16 16 17 19 21 26 34 40 47 55 60 63 66 69 72 70 66 60 55 54 52 50 50 47 44
38 44 50 55 58 59 58 58 60 64 66 67 65 63 60 60 60 58 59 62 62 60 59 58 57 57 55 53 53 53 52 51 49 47 45 44 41 38 36 32 28 25 21 18 16 15 14 13 13 12 12 11 10 10 10 10 11 11 11 12 12 13 15 18 22 30 41 50 57 64 70 76 79 82 87 88 83 72 63 59 57 55 55 54 52
49 55 59 62 62 61 62 65 70 70 69 68 66 65 64 64 63 62 61 62 62 61 60 58 57 56 56 57 58 56 53 50 47 44 41 36 32 28 24 20 17 14 12 11 10 9 9 8 8 8 8 8 8 9 8 9 9 9 10 10 11 12 14 19 27 38 51 62 72 79 83 88 93 95 99 101 99 92 78 68 62 59 58 57 57
61 64 65 65 65 66 70 73 72 70 68 68 68 68 68 67 66 65 64 62 62 61 59 58 59 61 62 62 58 53 48 44 40 34 29 24 20 17 14 12 10 9 9 8 8 8 8 8 8 8 8 9 9 9 10 10 10 10 11 11 10 11 13 20 32 48 66 79 87 92 95 98 100 101 102 102 102 103 97 86 73 64 61 60 60
72 71 70 70 72 75 76 74 71 69 70 71 71 71 70 68 66 65 63 62 60 60 60 62 64 64 61 56 50 44 39 33 27 22 18 15 12 10 9 8 8 8 8 9 10 10 10 10 10 10 10 10 11 11 11 12 12 13 13 12 12 12 11 15 24 42 66 88 100 102 101 103 102 101 102 101 100 102 103 101 92 80 70 65 63
76 75 75 77 78 79 77 74 73 72 73 72 72 70 68 66 63 62 60 58 59 60 63 64 62 57 51 45 39 32 26 21 17 14 12 10 9 8 8 8 8 9 10 11 11 12 12 12 12 12 12 12 12 12 13 14 14 15 15 15 14 14 13 13 14 20 36 64 93 105 102 100 102 101 100 101 101 101 101 102 103 99 90 81 73
77 78 80 81 80 78 76 75 75 74 73 71 69 66 65 63 62 60 59 60 62 63 62 58 52 47 40 33 28 22 18 15 12 10 9 8 8 8 8 9 10 11 11 12 12 11 12 12 11 12 12 12 13 14 15 15 16 17 18 19 18 16 14 15 17 19 22 36 68 97 104 100 100 101 100 101 101 101 100 100 102 103 102 98 90
78 80 81 80 78 76 74 73 72 71 69 67 66 64 62 62 61 61 62 64 65 61 56 50 43 37 30 24 20 16 14 11 9 9 8 8 9 9 10 11 12 12 12 12 11 11 11 10 10 11 12 15 19 23 24 24 26 30 33 38 43 39 26 19 27 38 38 35 48 79 100 102 100 101 100 101 101 100 101 100 100 101 101 102 101
79 80 79 76 75 73 72 71 70 68 67 66 64 63 62 62 62 64 65 64 61 55 48 42 35 28 23 19 15 12 11 10 9 9 8 9 10 11 12 13 12 12 11 11 10 9 8 8 9 10 12 19 28 39 45 43 42 49 60 72 81 80 63 42 40 51 56 50 49 68 93 101 101 102 101 100 101 100 100 101 100 101 101 100 100
79 77 75 73 72 72 71 70 69 67 67 65 64 63 63 64 64 65 64 59 54 48 41 34 27 22 18 15 12 10 9 9 8 8 9 10 11 12 13 12 12 11 10 8 7 6 7 8 9 11 13 17 23 35 45 49 56 72 89 98 98 100 94 75 60 58 63 65 59 67 91 103 101 102 101 100 101 100 100 101 100 101 101 99 97
76 74 73 73 73 72 70 68 67 65 64 63 63 63 62 63 62 60 58 53 47 41 33 27 22 18 15 12 10 10 9 9 9 9 10 11 12 13 12 12 11 9 7 6 5 6 7 9 11 13 14 15 19 32 49 65 81 94 102 103 100 102 102 93 81 72 71 75 67 65 87 104 102 100 101 100 100 100 100 100 100 100 100 99 98
77 76 77 76 73 70 69 68 66 64 63 63 62 61 60 60 57 55 52 47 41 34 27 23 18 14 12 10 9 9 9 8 9 10 12 13 13 13 12 11 9 6 5 5 5 7 8 9 11 12 18 32 48 66 82 92 98 100 101 102 102 102 100 95 92 86 82 83 73 67 84 101 101 100 101 100 100 100 100 100 100 101 100 100 100
80 79 78 74 70 69 69 68 65 63 63 62 61 60 58 56 54 51 48 42 35 29 23 19 15 12 11 10 9 9 8 9 11 12 14 14 13 13 12 10 7 5 5 5 7 9 9 10 11 13 33 64 84 94 99 100 100 100 100 102 102 101 97 91 91 93 91 85 76 76 91 102 101 100 100 100 100 100 100 100 100 101 100 100 100
79 77 74 69 68 68 67 64 62 62 62 62 61 59 56 55 53 49 44 36 30 24 20 16 13 11 10 9 9 9 9 11 13 15 15 15 15 14 12 9 5 5 6 7 10 11 9 12 10 16 52 87 94 96 100 99 100 101 101 102 102 98 94 90 92 94 87 80 81 90 102 105 102 100 100 100 100 100 100 100 100 100 100 100 100
76 74 71 68 68 68 66 65 64 64 64 62 60 58 56 55 52 46 38 32 26 21 17 14 11 10 10 9 9 9 12 15 16 17 17 16 15 14 12 9 5 6 7 9 13 12 12 17 13 21 60 87 86 94 102 99 99 101 100 101 100 97 97 96 92 86 79 83 92 100 103 103 101 100 100 100 100 100 100 100 100 100 100 100 100
75 74 72 72 72 70 68 68 68 67 64 61 59 58 57 54 48 41 34 28 23 19 15 13 10 10 10 9 10 12 15 17 18 18 18 17 16 15 13 9 6 7 10 11 15 15 15 22 25 31 53 65 65 81 96 97 99 102 101 101 100 99 98 92 84 81 85 94 101 102 101 100 100 100 100 100 100 100 101 100 100 100 100 100 100
76 76 74 73 72 69 69 69 67 65 61 59 58 57 55 51 44 37 30 25 21 17 14 11 10 10 10 9 12 16 18 20 20 20 20 18 17 17 14 11 9 10 13 15 18 19 20 26 34 42 52 58 62 72 82 88 94 97 96 97 94 90 86 82 83 89 96 100 101 100 100 100 100 100 100 100 100 100 100 100 100 100 100 100 100
76 74 71 71 69 68 69 67 64 61 59 58 58 56 53 48 40 33 27 22 19 15 12 11 10 10 10 11 16 20 22 22 22 22 22 20 19 18 16 14 12 12 15 18 21 24 25 31 41 51 62 71 77 82 84 87 89 89 88 87 85 85 86 88 93 97 100 100 100 100 100 100 100 100 100 100 101 100 100 100 100 100 100 100 100
75 72 70 69 69 68 67 64 61 59 58 58 58 56 51 44 36 30 24 20 17 14 12 11 10 10 11 14 20 24 24 25 25 24 24 22 21 20 19 17 15 15 17 19 23 26 28 32 40 53 65 75 83 91 96 97 97 96 95 94 95 97 97 97 99 100 100 100 100 100 101 100 100 100 100 101 100 100 100 100 100 100 100 100 100
74 73 71 70 70 69 65 62 61 61 60 60 58 55 48 39 32 27 22 19 16 13 11 11 11 11 13 18 24 26 27 27 27 26 25 25 23 22 22 21 19 19 20 22 24 27 29 31 35 42 54 66 75 83 87 91 94 99 101 101 101 102 101 101 102 101 100 101 101 101 101 100 100 100 100 101 100 100 100 100 100 101 100 100 100
75 73 72 72 71 68 64 64 64 63 62 61 58 53 44 36 30 25 21 18 15 13 12 11 11 12 16 23 28 29 30 30 30 29 28 27 26 24 24 25 23 23 24 26 27 28 31 34 35 37 43 54 67 75 77 81 85 91 97 99 98 99 101 103 106 105 104 104 104 103 102 101 101 101 101 100 100 100 100 100 100 101 101 100 100
77 75 74 72 70 67 66 68 66 64 63 61 57 50 41 33 28 23 20 17 15 13 12 11 12 14 19 27 31 32 33 33 33 33 31 30 29 28 27 27 27 27 27 30 32 32 33 34 36 38 40 46 57 66 71 77 82 87 92 92 89 90 94 97 100 101 101 102 103 103 104 103 102 101 101 101 101 102 101 101 101 101 100 100 101
78 75 73 72 70 70 70 69 66 64 63 60 55 47 38 31 26 22 19 17 15 13 13 12 13 15 22 30 34 34 35 35 36 36 34 33 32 31 31 31 31 31 31 32 34 35 37 37 37 39 40 43 49 53 57 64 72 81 86 85 83 86 88 89 90 91 93 95 98 101 104 106 106 103 101 101 103 102 101 101 101 100 101 101 101
77 74 74 74 72 72 71 68 66 64 62 59 53 45 36 29 25 21 19 18 16 14 13 13 13 17 24 33 36 37 37 37 39 38 37 36 35 34 34 34 35 35 34 35 36 38 40 41 41 41 41 44 47 48 49 51 57 66 72 74 78 83 85 86 87 89 91 94 97 101 104 105 106 105 104 104 104 102 102 102 102 101 102 101 97
75 75 77 76 74 73 71 68 66 64 62 58 51 42 34 27 23 21 20 18 17 15 14 14 15 18 27 35 39 39 39 40 41 41 40 39 38 37 37 38 39 40 39 39 39 41 43 44 45 45 45 46 48 49 49 50 53 58 61 62 66 72 77 82 86 90 92 94 98 101 103 103 104 106 108 107 106 106 104 103 103 104 105 103 99
77 79 80 78 75 74 72 69 67 65 62 57 49 40 33 27 24 22 20 19 18 15 14 15 15 18 27 37 41 42 42 43 43 44 44 43 41 40 39 40 41 44 45 44 43 44 46 47 48 49 50 50 52 52 52 52 54 57 58 57 57 59 63 70 76 81 84 87 91 95 98 100 103 106 108 107 105 107 107 105 103 103 102 100 98
80 82 82 81 79 77 74 70 67 65 62 56 48 40 33 27 24 22 21 20 18 16 15 15 16 18 25 36 43 45 44 45 46 46 46 46 45 44 42 42 43 45 48 49 49 49 50 51 51 52 54 55 56 57 57 55 56 57 57 56 56 56 59 63 66 69 72 75 80 85 89 92 95 100 105 107 107 107 105 102 100 96 93 92 94
84 85 86 85 82 78 74 70 67 65 61 55 47 39 33 28 25 23 22 22 20 17 16 16 16 18 24 34 43 47 47 47 48 48 49 49 48 48 46 45 45 46 50 52 53 53 56 57 55 56 58 59 60 62 63 61 60 61 60 58 57 58 59 61 63 65 67 70 74 78 81 84 86 91 97 102 104 102 98 95 93 90 86 86 88
89 90 90 88 84 79 73 69 66 64 61 55 47 39 33 29 26 24 23 23 21 18 17 17 17 19 23 31 41 47 50 50 50 51 52 52 52 51 51 49 48 49 51 54 55 56 60 63 62 61 63 63 63 65 69 68 65 64 64 63 62 62 62 61 62 64 67 70 73 77 80 82 82 84 86 88 87 88 90 89 85 81 80 79 78
94 93 93 90 85 79 72 67 65 63 60 55 47 39 35 31 27 26 25 24 22 19 18 19 19 20 23 29 38 47 52 53 53 53 54 55 55 55 55 53 52 52 54 56 57 58 62 67 69 69 69 69 68 68 71 74 72 70 70 69 67 67 67 64 63 65 68 71 74 77 80 83 84 83 83 82 80 82 85 82 76 74 73 70 68
97 96 95 91 84 77 70 66 64 63 60 55 47 41 37 33 30 28 27 25 23 20 20 20 20 21 23 28 37 46 53 56 57 57 56 57 57 58 59 57 56 56 57 59 60 60 63 68 72 75 77 77 76 75 75 77 77 76 77 79 77 74 71 67 67 70 73 75 78 80 81 83 84 85 87 88 87 88 87 81 79 77 70 63 62
101 99 96 90 83 76 69 65 64 62 60 55 49 43 38 36 33 31 29 27 24 21 21 22 22 23 25 29 37 46 54 60 61 61 60 59 59 60 62 61 59 60 61 62 63 63 65 68 73 78 82 82 82 82 81 80 80 82 85 87 86 84 80 76 74 75 78 80 80 82 84 85 87 91 95 95 94 94 91 87 85 82 72 65 63
102 99 94 88 81 75 69 65 63 61 59 55 50 45 41 38 36 33 32 29 26 23 23 24 25 25 26 31 40 49 57 63 66 66 65 63 62 63 64 63 62 63 64 65 66 66 67 69 72 78 83 86 88 89 88 85 83 86 89 89 87 87 87 86 84 84 86 86 85 86 88 90 94 98 101 100 99 98 95 90 87 83 78 74 71
101 98 92 86 80 74 69 64 62 61 59 56 52 47 43 41 39 36 34 31 27 25 25 26 28 28 28 31 40 52 62 69 72 73 71 69 67 66 67 67 66 66 67 68 69 69 69 70 73 77 81 85 90 94 94 92 89 87 88 86 85 87 90 93 94 95 96 94 92 91 92 95 98 100 99 97 96 95 94 91 89 85 82 80 79
99 97 91 85 80 74 68 64 62 61 59 56 53 49 45 43 41 39 36 33 29 27 28 30 31 31 30 32 39 53 68 78 82 82 81 78 75 73 72 72 70 69 70 71 71 72 72 71 75 78 80 84 91 95 97 99 97 93 87 84 84 88 92 95 99 104 105 103 100 100 100 99 96 93 91 90 91 93 95 94 92 86 80 77 76
99 96 91 86 80 74 69 64 62 60 59 56 53 50 47 45 44 42 39 35 31 30 31 33 35 34 33 34 39 51 68 82 89 92 92 90 86 83 81 80 78 75 74 73 73 74 74 73 74 76 77 82 91 96 97 100 102 99 92 86 85 87 92 97 101 104 105 106 107 107 103 98 94 93 94 96 97 98 97 94 89 81 72 68 68
99 97 92 86 81 75 69 64 61 60 59 57 54 51 48 47 46 45 42 37 34 34 34 36 38 39 37 36 39 48 64 80 91 98 102 103 100 94 89 88 88 85 80 78 77 78 76 75 75 76 77 81 90 98 100 101 102 102 100 95 91 90 93 100 103 100 99 102 104 101 97 95 95 97 97 99 102 102 98 94 90 81 68 61 59
99 97 93 88 82 75 69 64 62 61 60 59 56 53 51 50 49 47 45 40 36 37 39 40 42 43 42 40 41 47 61 78 92 100 104 106 106 103 96 90 87 88 87 84 82 81 80 77 76 77 78 80 88 97 103 105 105 105 104 104 101 99 100 103 104 103 103 105 105 102 99 99 98 97 95 96 99 99 97 97 96 88 73 61 56
99 98 95 89 83 76 70 65 62 61 60 59 57 54 53 52 51 50 48 43 39 40 42 44 46 48 48 46 44 46 56 74 92 102 103 101 102 105 104 95 87 84 86 85 82 81 82 81 78 75 73 74 79 86 93 99 101 101 100 100 102 104 106 105 104 104 104 105 107 107 105 104 102 101 101 102 102 102 102 102 102 97 84 68 58
Wind_Speed
31 32 32 33 33 34 35 35 36 37 38 39 40 42 43 44 45 46 47 48 49 50 51 52 52 53 54 55 56 57 57 58 58 59 60 60 61 61 62 62 62 63 63 63 63 63 63 64 64 64 65 65 65 66 66 66 66 66 67 67 68 68 69 70 71 71 72 72 73 75 78 80 83 86 89 92 94 95 96 97 97 97 97 97 97
33 33 34 34 35 35 36 37 38 39 41 42 43 44 45 46 47 48 49 50 51 52 54 54 55 56 57 58 59 60 61 61 62 63 63 64 65 65 66 66 67 67 68 68 68 68 68 68 68 68 68 69 69 69 69 69 69 69 69 69 70 70 70 71 72 72 72 72 72 71 72 74 76 78 81 84 88 90 93 95 96 97 97 97 97
34 35 35 35 36 37 37 38 39 41 43 44 44 45 47 48 49 50 51 52 53 54 56 57 58 58 59 61 61 62 63 64 65 66 67 67 68 68 69 69 70 70 71 71 72 72 72 72 72 72 72 73 73 73 73 72 72 72 72 72 73 73 73 74 74 74 74 74 74 73 73 73 74 75 76 78 80 83 86 89 92 94 95 97 97
35 36 36 36 37 38 38 39 41 42 44 45 46 47 48 49 50 51 53 54 55 56 57 58 59 60 61 62 63 64 65 67 67 68 70 70 70 71 71 72 73 73 74 74 75 75 75 76 76 76 76 76 77 77 77 77 76 76 75 75 76 76 76 76 77 77 77 77 77 77 76 76 76 75 76 77 78 79 81 83 85 87 90 92 94
36 37 38 37 38 38 39 41 42 44 46 47 47 49 50 51 52 53 55 56 57 59 60 60 61 63 64 65 66 67 68 69 70 71 72 73 73 74 74 75 75 76 77 77 77 78 78 78 79 79 79 79 79 80 80 80 80 80 79 79 79 79 79 79 79 80 80 80 80 80 80 79 79 78 77 78 79 79 79 79 80 82 84 86 88
37 37 38 38 39 40 41 43 45 46 48 49 50 51 53 54 55 57 58 59 60 62 63 63 64 65 66 67 68 69 69 70 71 73 74 75 75 75 76 77 77 78 79 79 80 80 81 81 81 81 82 82 82 82 82 82 83 83 83 83 83 83 82 82 82 83 83 83 83 83 83 82 82 81 81 81 80 80 80 80 79 80 80 81 83
37 38 39 40 41 42 44 47 48 50 51 52 53 55 56 57 58 59 60 61 63 64 65 65 66 67 68 68 69 70 71 71 72 73 74 75 75 76 77 77 78 79 80 81 81 82 82 83 83 83 84 84 84 84 84 85 85 85 85 86 86 86 86 85 85 86 86 86 86 86 86 85 85 84 84 84 83 82 81 81 81 80 80 80 81
38 39 40 41 43 45 48 50 51 53 54 56 57 57 58 59 60 61 61 62 63 64 65 66 67 68 69 70 70 71 72 72 73 74 75 75 76 76 77 78 79 80 81 82 83 83 84 84 84 85 85 86 86 86 87 87 87 88 88 88 88 89 89 89 89 89 89 89 89 88 88 88 87 87 86 86 86 84 82 82 82 81 81 81 81
39 40 41 43 46 49 51 52 54 55 56 57 58 59 60 61 61 61 62 63 65 66 66 68 69 70 70 71 71 71 72 73 74 74 75 76 77 77 79 80 81 81 82 83 84 84 85 86 86 87 87 88 88 89 89 90 90 91 91 91 92 92 92 92 92 91 91 91 91 91 90 90 90 89 89 88 88 86 84 83 83 83 82 82 82
40 42 44 47 50 52 53 54 55 56 57 58 59 60 61 62 63 63 64 66 67 68 69 70 71 71 71 72 72 72 73 74 74 74 75 76 78 78 79 80 81 82 83 84 85 86 88 89 90 90 91 92 92 92 93 94 94 95 96 96 96 96 96 96 95 94 93 93 92 92 91 91 91 90 90 89 89 88 86 85 84 83 82 83 83
42 45 48 50 52 53 54 55 56 57 59 60 61 62 63 63 64 65 66 68 69 70 71 71 72 73 73 73 74 74 74 75 75 75 75 77 78 78 80 81 83 84 86 87 89 91 93 94 95 96 96 97 98 98 98 99 99 100 100 100 100 99 99 98 97 96 95 94 93 92 92 92 91 91 91 90 89 89 87 86 85 83 82 81 82
44 47 49 51 52 53 55 55 57 58 60 61 62 63 64 65 66 66 67 69 70 71 71 72 72 73 74 74 75 75 75 76 76 76 76 78 79 80 82 84 86 89 91 93 94 96 98 99 100 101 102 103 103 104 104 105 105 105 104 104 103 102 101 100 99 98 96 94 93 93 92 91 91 91 91 90 90 89 88 86 85 84 83 81 81
47 49 50 52 53 54 55 57 58 59 61 62 63 64 65 65 67 67 67 69 71 71 72 72 73 73 74 75 75 76 76 77 77 78 79 81 83 85 87 90 92 94 96 98 100 102 103 104 105 106 106 107 107 108 108 108 108 108 108 107 105 104 103 102 100 98 96 95 93 92 91 91 91 90 90 90 90 89 89 87 86 85 83 81 80
50 51 53 54 55 56 57 58 59 60 62 63 64 65 66 66 67 68 68 69 71 72 72 72 73 74 74 75 76 76 77 78 80 81 83 86 88 90 92 94 96 98 101 103 104 106 107 107 107 107 107 107 106 106 106 105 105 105 105 105 104 103 102 101 99 97 96 94 92 91 91 90 90 90 90 89 89 89 89 88 87 86 84 82 81
52 54 55 57 58 59 59 60 61 62 63 64 65 66 66 67 68 69 69 70 71 72 73 73 74 74 75 75 76 77 79 81 83 85 87 90 92 94 96 97 100 101 103 104 105 105 105 105 105 104 103 101 100 100 99 99 98 98 98 98 98 98 98 98 97 96 94 93 92 91 90 90 89 89 89 89 89 89 89 88 88 86 85 83 82
53 55 56 58 59 59 60 61 62 63 64 64 65 66 67 68 68 69 69 70 71 71 72 73 73 73 74 75 77 79 82 84 86 88 90 93 95 97 98 99 99 99 98 98 98 98 99 98 98 98 97 95 95 95 94 94 93 93 92 91 91 91 93 94 95 94 93 92 91 91 90 89 89 89 88 88 88 88 88 88 88 87 86 85 83
54 55 57 57 58 59 60 61 62 63 64 64 65 66 66 67 68 68 69 70 70 71 71 72 72 72 74 76 79 81 84 86 88 90 93 95 97 97 96 95 93 91 89 90 90 92 93 93 94 95 94 94 94 93 93 92 92 91 91 90 88 87 87 88 90 91 92 91 91 90 90 89 88 88 87 87 87 87 87 87 87 87 87 86 85
55 56 57 57 58 59 60 62 62 63 64 64 65 66 66 67 68 68 69 69 70 70 70 71 72 73 75 77 80 83 86 88 91 93 95 96 96 94 92 90 87 86 85 86 88 90 92 93 94 95 96 95 95 95 94 93 91 91 91 90 89 87 85 84 84 85 87 88 89 88 88 88 87 87 86 86 86 85 85 86 86 86 87 86 85
56 57 57 58 59 60 61 62 62 63 64 65 65 66 67 68 68 69 69 69 69 69 70 71 73 75 77 80 82 85 88 92 94 95 95 94 92 90 88 85 84 85 86 88 90 92 93 95 95 96 96 96 96 96 94 93 91 90 89 89 89 88 86 83 81 81 82 83 84 85 85 85 85 85 85 84 84 84 83 84 84 85 85 85 85
57 57 58 59 59 60 61 62 63 63 64 65 66 67 67 68 68 69 69 69 69 70 71 73 75 78 80 82 85 88 92 94 94 93 91 88 86 84 83 82 83 85 88 90 92 94 95 95 96 95 95 95 94 94 93 92 89 88 87 85 85 87 87 83 79 77 77 78 80 81 81 82 82 82 82 82 82 82 82 82 83 83 84 84 84
57 58 58 59 59 60 61 62 63 63 64 65 66 67 67 68 68 68 68 68 69 71 73 75 77 80 82 85 88 91 93 92 90 87 84 81 80 80 80 82 83 86 88 91 92 93 93 93 92 92 92 92 92 92 93 91 88 85 83 81 81 83 85 83 79 75 73 74 75 76 77 77 78 79 79 79 80 80 80 81 81 82 82 82 82
58 58 58 59 60 61 62 62 63 64 65 66 66 67 68 68 68 68 68 69 70 72 74 76 79 81 84 88 90 92 91 89 86 82 79 77 77 78 79 81 83 86 88 89 89 88 86 85 85 86 87 88 89 90 90 89 85 82 80 79 79 81 83 83 81 77 73 71 71 72 72 73 74 75 75 76 77 77 78 79 79 80 80 80 81
58 58 59 60 60 61 62 62 63 64 66 67 67 67 68 68 68 68 68 69 71 73 76 78 80 83 86 90 91 91 89 86 82 78 76 76 76 77 78 80 83 84 85 84 82 80 79 78 77 77 79 80 82 83 83 81 79 77 77 78 78 81 83 84 82 79 75 72 70 69 68 69 71 72 73 73 74 75 76 76 77 77 77 78 78
58 59 59 60 61 62 62 63 64 65 66 67 67 68 68 68 68 68 68 70 72 74 77 79 82 85 88 90 90 88 85 81 77 75 74 74 74 75 77 79 81 80 79 77 74 73 72 71 71 70 70 70 72 73 74 74 74 75 76 77 78 81 83 84 82 80 77 74 71 68 66 67 68 70 70 71 72 73 74 74 74 75 75 75 76
59 59 60 60 61 62 63 63 65 66 66 67 67 67 68 67 67 68 69 71 73 75 77 80 83 86 88 89 87 84 80 76 74 73 73 72 72 74 76 77 77 75 72 69 67 66 65 65 65 65 63 63 65 67 69 71 73 75 75 75 77 81 83 83 81 79 78 75 71 66 64 65 67 68 69 70 71 72 72 73 73 73 74 74 74
59 59 59 60 61 62 63 64 65 66 66 66 67 67 67 67 67 68 70 72 73 76 78 81 84 87 88 87 83 79 74 72 71 71 71 71 71 73 74 74 72 69 67 64 61 59 58 58 60 60 59 60 63 65 68 71 73 74 75 76 79 82 82 81 80 79 78 74 67 63 62 64 66 67 68 69 70 71 71 71 71 72 72 72 72
58 58 59 60 61 62 63 64 65 65 66 66 66 66 66 66 67 68 70 72 74 76 79 82 84 86 86 84 79 73 69 68 68 68 68 69 70 71 71 70 68 65 62 59 56 54 52 52 53 54 57 59 61 64 67 69 72 73 75 77 79 80 80 80 80 79 74 68 62 60 60 62 64 65 67 68 69 70 70 70 70 71 71 71 71
58 58 60 61 62 62 63 64 65 65 65 65 66 66 65 66 67 69 71 72 75 77 79 82 84 85 84 79 73 69 67 67 66 66 66 67 68 69 68 67 64 61 58 55 52 50 48 48 48 48 51 55 59 63 67 69 71 73 74 76 78 79 80 80 77 72 65 60 58 57 58 60 62 63 64 65 67 68 68 68 69 69 70 70 71
58 59 61 61 62 63 64 64 64 65 65 65 65 65 65 66 67 69 71 73 75 77 79 82 83 82 79 73 68 66 65 65 65 65 65 65 66 66 66 64 61 58 56 53 51 48 46 45 45 44 45 47 50 55 60 64 67 70 72 74 75 75 73 69 64 59 56 55 55 55 56 58 59 60 61 62 64 65 66 66 66 68 68 69 70
59 60 61 62 63 64 64 65 65 65 65 65 65 64 65 66 67 69 71 73 75 77 79 81 81 78 73 67 64 64 64 64 64 64 64 64 64 64 64 62 59 56 53 51 49 47 45 44 43 43 43 43 43 46 49 52 55 58 59 60 60 59 57 55 53 53 53 54 53 53 54 55 56 57 59 60 61 63 63 63 64 66 67 68 68
59 60 61 62 63 64 64 64 65 65 65 64 64 64 64 65 67 69 71 72 74 76 78 79 78 74 68 63 62 62 62 62 62 62 62 62 62 62 62 60 58 55 52 49 47 45 44 42 41 40 40 40 41 42 43 45 46 48 49 49 49 49 50 49 49 50 50 51 51 52 52 53 53 55 56 58 60 61 61 62 63 64 65 66 67
59 60 62 63 63 63 64 64 64 64 64 63 63 63 64 65 67 69 70 72 74 76 77 77 75 70 64 60 61 61 61 61 61 61 61 60 60 60 60 59 57 55 52 49 47 45 43 42 40 39 39 38 39 40 41 41 42 44 45 46 45 44 45 45 46 47 47 47 48 49 49 50 51 53 55 56 58 59 60 61 62 62 63 64 65
59 61 62 62 63 63 64 64 64 64 63 63 63 63 64 65 67 68 70 72 73 75 76 75 72 66 61 59 59 60 59 59 59 59 59 59 58 58 58 57 56 55 53 50 48 46 44 43 41 40 39 38 39 39 40 40 40 41 43 44 43 42 41 42 43 44 45 45 46 47 47 48 50 52 54 55 56 57 58 59 60 61 62 63 64
60 61 62 62 63 63 63 63 63 63 63 63 63 63 64 65 66 68 69 71 73 74 75 73 69 63 59 58 58 58 58 58 57 57 57 57 57 57 56 56 55 54 52 50 48 46 44 43 42 40 39 38 39 39 40 40 40 41 42 44 43 42 41 41 41 42 43 44 45 46 47 48 50 51 52 54 55 56 57 59 60 60 61 62 64
60 61 62 62 62 62 63 63 63 63 62 62 62 63 64 65 66 67 69 70 71 73 73 71 66 61 57 57 57 57 57 57 56 56 56 56 56 55 55 54 53 53 52 50 49 47 45 44 42 41 39 38 38 39 39 39 40 40 42 42 42 41 41 41 41 42 43 43 44 45 46 48 49 50 51 53 54 56 57 57 59 60 61 62 63
61 61 62 62 62 62 62 62 62 62 62 62 62 62 63 64 65 67 68 69 70 71 71 68 64 59 56 56 56 56 56 56 56 55 55 55 54 54 54 53 52 52 51 50 49 47 46 44 43 41 40 38 38 39 38 37 38 39 40 41 41 41 41 41 41 42 42 43 44 45 46 48 49 49 51 53 54 56 56 57 58 59 61 62 62
61 61 61 61 61 61 61 61 61 61 61 61 62 62 62 63 64 66 67 68 69 70 70 67 62 58 56 55 55 55 55 55 55 54 54 54 53 53 53 52 51 50 50 49 48 47 46 45 43 42 40 39 38 39 38 37 36 37 38 38 39 39 40 41 41 42 43 44 45 46 47 48 48 50 51 53 55 56 57 58 59 60 61 62 62
60 61 61 61 61 61 61 61 61 61 61 61 61 62 62 63 64 65 66 67 68 69 69 66 61 58 55 54 54 54 54 54 54 54 53 53 52 52 51 51 50 49 49 48 47 47 46 45 44 42 41 39 38 39 38 37 36 36 37 37 37 37 38 39 40 41 42 44 45 46 47 47 48 49 51 52 54 57 58 59 60 61 61 61 61
60 60 60 60 60 60 60 60 61 61 61 61 61 61 61 62 63 64 65 66 67 68 68 65 61 57 55 54 54 53 53 53 53 53 52 52 51 51 50 50 49 48 48 48 47 46 45 45 44 43 41 40 38 38 39 38 37 37 38 38 37 36 36 37 38 39 40 41 43 44 45 46 47 48 49 52 54 57 58 59 60 61 61 60 60
60 60 60 60 60 60 60 60 60 61 61 61 61 61 61 61 62 63 64 65 66 67 67 65 60 57 55 54 54 53 53 52 53 52 52 51 51 50 49 49 48 48 47 47 47 46 44 45 45 43 42 41 39 38 38 39 39 39 39 39 38 37 36 36 36 36 37 38 39 41 42 44 45 46 48 51 53 56 57 58 59 60 60 59 60
60 60 59 59 59 59 59 60 60 61 61 61 61 60 60 61 62 62 63 64 64 65 66 64 60 57 55 54 54 53 52 52 52 52 51 51 50 49 49 48 47 47 47 46 46 46 44 44 44 44 42 41 40 39 39 39 40 40 40 40 39 37 37 36 35 35 35 35 37 38 40 42 43 45 47 50 52 54 55 57 58 58 59 59 60
59 59 59 59 59 59 59 59 60 60 60 60 60 60 60 61 61 61 62 62 63 64 65 63 60 57 55 54 54 53 52 51 51 51 51 50 50 49 48 48 47 46 46 46 46 45 44 44 44 44 43 42 41 40 39 40 40 40 40 40 39 38 38 37 35 34 34 35 36 37 38 40 42 44 46 48 50 51 53 55 56 56 57 57 57
59 58 58 58 58 58 59 59 60 60 60 60 60 60 60 60 60 61 61 61 62 63 64 63 60 57 55 54 54 53 52 51 50 50 50 50 49 48 48 48 47 45 45 45 46 45 44 44 44 44 44 43 42 42 41 41 41 41 41 40 40 39 39 38 36 34 34 34 35 37 38 39 41 42 44 45 47 49 51 52 53 54 55 55 54
58 58 58 58 58 58 59 59 59 60 60 60 59 59 60 60 60 60 60 60 61 62 62 62 60 57 56 54 54 53 52 50 50 49 49 49 48 48 48 47 47 46 45 45 45 45 44 44 43 43 44 44 43 42 42 42 42 41 41 41 41 41 41 39 37 35 34 35 35 36 37 38 39 40 42 44 45 47 49 50 51 53 54 54 54
57 57 57 58 58 58 58 59 59 59 59 59 59 59 59 59 59 59 59 59 60 61 62 61 60 58 56 55 54 53 51 50 49 49 48 48 48 47 47 47 47 46 45 45 45 45 44 44 43 43 43 44 44 44 43 44 43 42 42 42 42 42 42 41 39 37 35 35 35 35 36 37 37 39 41 43 45 47 49 51 52 53 54 54 54
57 57 57 57 57 57 58 58 59 59 59 59 58 58 58 59 59 58 58 58 58 59 60 60 59 58 57 55 53 52 51 50 49 48 48 47 47 46 46 46 46 46 45 45 45 45 44 44 43 43 43 43 43 44 44 45 44 44 43 43 43 42 41 41 40 38 37 36 35 35 36 37 38 40 42 43 45 46 48 49 51 52 53 53 54
57 57 57 56 56 57 57 58 59 58 58 58 58 58 58 58 57 57 57 57 57 58 59 59 59 58 57 55 54 52 51 50 49 48 48 47 47 46 46 46 46 45 45 45 45 45 45 44 43 43 43 42 43 44 45 45 45 45 45 44 44 42 41 40 39 38 38 37 36 36 37 38 39 41 42 43 44 44 45 46 48 49 51 51 52
57 57 56 56 56 56 57 58 58 58 58 58 58 57 57 57 57 56 56 56 56 57 58 58 58 57 57 56 55 53 51 50 49 49 48 48 47 47 46 46 46 46 45 46 45 45 45 44 43 42 42 42 42 43 44 45 45 46 45 45 44 43 42 40 38 37 37 37 37 37 38 39 40 41 42 42 43 44 45 45 45 46 47 48 49
56 56 56 55 55 56 57 58 58 58 58 58 57 57 57 56 56 56 55 55 55 56 57 57 57 57 57 56 55 54 52 51 50 49 48 48 48 47 46 46 46 46 46 46 46 46 46 45 44 43 42 42 42 42 43 45 46 47 47 46 45 44 43 42 40 39 38 37 38 39 39 39 40 40 40 41 42 44 45 44 44 45 45 45 45
56 55 55 55 55 56 56 57 58 58 58 57 57 56 56 56 56 55 55 54 54 55 56 57 57 57 57 56 56 55 53 52 50 49 48 48 48 48 47 46 46 46 46 46 46 46 46 45 44 42 42 42 41 42 42 43 45 46 47 47 46 45 44 43 42 42 41 40 40 41 41 41 41 41 41 41 42 43 44 44 44 44 44 43 43
55 55 54 54 54 55 56 57 57 57 57 57 56 56 56 56 55 55 54 54 54 54 55 56 57 56 56 56 56 55 54 53 51 50 48 47 47 48 49 48 47 46 46 46 46 46 46 46 45 44 42 41 41 41 42 43 43 44 45 46 45 44 44 43 43 42 42 41 41 41 41 41 42 42 42 42 43 44 44 44 44 44 44 44 43
Wind_Direction
300 300 300 301 302 302 303 303 304 304 304 303 303 303 302 302 302 302 302 301 301 300 300 299 299 298 297 297 296 296 295 294 294 293 292 292 291 290 289 289 288 287 287 286 285 284 284 283 283 282 281 281 280 280 280 280 279 279 279 279 279 278 278 277 276 274 273 272 271 270 269 268 267 266 265 264 263 262 261 261 260 259 259 258 257
301 301 301 302 302 303 303 303 304 304 303 303 303 302 302 302 301 301 301 301 300 300 299 298 298 297 297 296 296 295 295 294 293 293 292 292 291 290 290 289 288 288 287 286 285 285 284 284 283 282 282 281 280 280 279 279 279 279 279 279 279 279 279 279 279 278 277 275 274 273 273 272 271 269 268 267 266 264 263 262 261 260 260 259 258
301 300 300 300 301 301 301 302 302 302 302 302 301 301 300 300 300 299 299 299 298 297 297 297 296 296 295 295 294 294 294 293 293 292 291 290 290 290 289 288 288 287 286 286 285 284 284 283 283 282 282 281 280 280 279 279 278 278 278 278 278 278 278 278 278 278 278 277 277 276 275 275 274 273 272 271 269 267 265 264 263 262 261 260 259
300 299 299 298 298 298 299 300 301 301 301 300 300 299 299 299 298 298 298 297 296 296 295 295 295 294 294 294 294 293 293 293 292 291 291 290 290 289 289 288 287 286 286 285 284 283 283 282 282 281 281 280 280 280 279 279 278 278 277 277 276 276 276 276 276 276 276 276 277 276 276 275 275 275 274 274 273 271 269 267 265 264 263 262 261
299 298 297 296 295 296 297 298 299 299 299 299 299 298 298 297 297 297 296 296 295 294 294 294 294 293 293 293 292 292 292 291 291 290 290 290 289 289 288 288 287 286 286 285 284 284 283 282 281 281 280 279 279 279 278 278 278 277 277 276 276 275 275 275 275 275 275 275 275 275 275 274 274 274 274 273 273 273 272 271 269 267 266 264 263
299 298 297 296 296 296 297 298 298 298 298 298 298 298 297 297 296 296 296 295 294 294 294 294 293 293 293 293 292 292 291 291 290 289 289 289 288 288 287 287 287 286 286 285 285 284 284 283 282 281 280 279 278 278 277 277 277 276 276 276 275 275 275 275 274 274 274 274 273 273 273 273 273 273 272 271 271 271 272 272 271 270 269 267 265
298 297 297 296 297 297 298 299 299 299 298 298 298 298 297 297 297 297 296 296 296 295 295 295 294 294 294 294 294 294 293 292 291 291 290 290 289 288 288 287 287 286 286 286 285 285 284 283 282 282 281 280 279 278 277 276 276 276 275 275 275 275 275 274 274 274 274 274 273 272 272 272 271 271 270 270 270 270 270 270 269 269 269 268 267
297 297 296 296 296 298 299 299 299 299 299 299 299 298 298 298 298 298 298 298 297 297 297 297 296 296 296 296 296 295 295 294 294 293 293 292 291 290 289 288 288 287 287 287 286 285 285 284 283 282 281 280 279 278 278 277 276 276 275 275 275 275 275 274 274 273 273 273 273 272 272 271 271 270 269 269 268 268 268 268 268 267 267 267 267
296 295 295 296 298 299 300 300 299 299 299 300 300 300 300 300 300 300 300 299 299 299 298 298 298 298 298 298 297 297 296 295 295 294 294 293 292 291 290 290 289 289 288 288 287 286 286 285 284 283 282 281 280 279 278 278 277 277 276 276 275 275 275 274 274 273 273 273 272 272 271 271 270 269 269 268 267 267 266 266 267 266 266 265 265
297 297 297 298 299 300 300 300 300 301 301 301 301 301 302 302 302 302 302 301 301 300 300 300 300 300 299 299 298 298 297 296 295 295 294 293 292 292 291 291 290 289 289 288 288 287 286 285 284 283 283 282 281 280 279 279 278 277 277 276 276 275 275 274 274 273 272 272 271 270 270 269 269 268 268 267 267 266 265 265 265 265 265 265 264
298 298 298 299 299 300 300 301 302 302 302 303 303 303 303 303 303 303 303 303 302 302 302 302 301 301 300 300 299 298 297 296 295 295 294 293 293 292 292 291 291 290 289 289 288 287 286 285 285 284 283 283 282 281 280 279 278 277 277 276 276 275 275 274 273 272 271 271 270 269 268 268 267 267 266 266 266 265 265 264 263 263 263 263 263
298 298 298 299 300 301 302 303 303 304 304 304 304 304 304 304 303 303 304 303 303 303 303 302 302 301 301 300 299 298 297 297 296 295 295 294 294 293 292 292 291 291 290 289 288 287 286 286 285 284 284 283 282 281 280 280 279 278 277 276 275 275 274 273 273 272 271 269 268 267 266 266 265 265 265 264 264 264 264 263 263 262 261 261 261
299 300 301 302 303 303 304 305 305 305 305 304 304 304 304 304 304 304 305 304 304 304 303 303 302 302 301 300 300 299 299 298 298 297 297 296 295 294 294 293 292 291 290 289 288 287 287 286 285 284 284 283 282 281 280 279 278 277 276 275 274 274 273 272 271 270 269 268 266 265 265 264 263 263 263 263 263 263 262 262 262 261 261 260 259
304 304 305 305 306 306 306 306 306 306 305 305 305 305 305 305 306 306 305 305 304 304 303 303 303 302 302 301 301 301 300 300 300 299 298 297 296 295 294 294 293 292 291 290 289 288 287 286 285 284 283 282 281 280 279 278 277 276 275 274 274 273 272 270 269 268 267 266 265 264 263 263 262 262 262 262 261 261 261 261 261 260 260 260 259
307 307 307 307 307 307 307 307 307 306 306 306 306 306 306 307 306 306 305 305 304 304 304 304 304 303 303 303 303 302 301 300 299 298 297 296 296 295 295 294 294 293 292 291 290 289 288 287 286 285 284 283 282 281 279 278 277 276 275 274 273 272 271 270 269 267 266 265 264 263 262 262 262 262 262 261 261 261 260 260 260 259 259 259 258
308 307 306 307 307 307 308 307 307 306 306 307 307 307 307 307 306 306 305 305 305 304 304 304 304 304 304 303 302 300 299 299 298 298 298 297 297 297 296 296 295 294 292 291 290 289 288 287 287 286 285 284 282 281 281 279 278 277 276 275 273 272 270 269 268 267 266 265 264 263 262 262 262 262 262 262 261 261 260 260 259 259 258 258 257
307 306 306 307 307 307 307 306 306 307 307 307 307 307 307 306 306 306 305 305 305 304 304 304 304 303 302 301 300 299 299 299 299 299 299 299 299 298 297 296 295 293 291 290 289 289 288 288 287 286 285 284 283 282 281 280 279 278 277 276 274 272 270 268 267 266 265 264 264 263 262 262 262 262 262 262 262 261 260 260 259 259 258 257 257
306 306 307 307 307 307 307 307 307 307 307 307 307 307 306 306 306 306 305 305 305 305 304 304 303 302 301 301 301 301 301 301 301 301 301 301 301 300 299 298 296 294 292 291 290 289 288 287 286 285 284 283 282 281 279 278 278 277 276 276 275 273 271 270 268 266 265 264 263 263 263 262 262 262 262 262 262 261 261 260 259 259 258 258 257
307 307 307 307 308 307 307 308 308 308 308 307 307 307 307 307 307 306 306 306 306 305 304 303 303 303 303 304 304 304 304 304 304 304 304 304 303 302 300 299 297 296 294 293 292 291 289 288 286 285 283 282 280 279 278 277 277 276 276 275 275 273 272 270 269 268 266 264 263 262 262 262 262 262 261 261 261 261 260 260 260 259 259 258 258
308 308 308 308 308 308 308 308 308 308 308 308 308 308 308 308 308 308 307 307 306 306 305 306 306 306 306 307 307 307 307 307 307 307 306 305 303 301 300 299 298 296 295 294 293 292 290 288 286 284 282 280 279 278 278 278 277 277 276 275 274 274 272 271 270 269 268 266 263 262 262 262 261 261 260 260 260 260 259 259 259 259 259 259 258
308 308 308 308 308 308 308 308 308 308 308 308 309 309 309 309 309 309 308 307 307 307 308 308 309 309 309 309 309 309 309 309 309 307 306 304 303 301 300 299 298 297 296 295 294 291 289 287 285 283 281 279 277 276 276 277 277 276 274 273 272 273 273 273 271 270 269 268 266 264 262 262 261 260 260 259 259 259 258 258 258 258 258 258 258
308 308 308 308 308 309 309 309 309 309 310 310 311 311 310 310 309 309 309 308 309 310 310 310 310 311 311 311 311 311 311 310 309 307 305 304 303 302 301 301 300 299 298 296 294 291 289 286 284 282 279 277 276 275 275 275 275 273 271 269 270 270 272 273 273 272 271 271 269 266 264 262 261 260 259 258 257 257 257 257 257 257 258 258 258
308 309 309 309 309 309 310 310 310 311 312 312 312 311 311 310 310 310 310 310 311 311 312 312 312 313 312 312 313 312 312 310 309 307 306 305 304 303 303 303 302 301 299 297 294 291 288 285 282 280 278 277 275 274 274 274 272 270 267 267 268 269 269 271 272 274 274 274 272 269 264 262 261 259 258 257 256 255 255 256 256 257 257 257 258
309 310 310 310 310 310 311 312 312 312 313 312 312 311 311 310 310 311 311 312 312 313 313 314 314 314 314 314 314 313 312 310 309 308 307 307 306 306 307 307 305 304 301 298 295 292 289 285 282 279 278 277 276 275 273 272 269 267 265 266 267 268 268 269 271 274 276 276 274 270 265 262 260 259 257 255 254 254 254 255 255 255 256 257 257
311 311 310 310 311 312 312 313 313 313 312 312 311 311 311 311 311 312 313 313 314 315 315 315 316 315 315 315 314 313 312 311 310 310 309 309 310 310 311 310 309 307 305 302 298 295 292 288 284 279 276 275 274 273 272 270 268 266 265 266 266 267 268 270 273 275 277 277 275 270 265 261 259 258 256 254 254 254 254 254 254 255 256 256 256
310 310 310 311 312 313 313 313 312 312 312 312 312 311 312 312 313 314 314 315 316 316 317 317 317 316 316 315 314 313 313 312 312 312 312 313 314 314 315 314 313 311 309 306 303 300 297 293 287 281 275 273 272 271 270 269 267 266 265 265 266 267 270 272 275 276 278 277 274 268 262 260 258 256 254 254 253 254 254 254 255 255 256 256 256
310 310 311 313 313 313 313 313 313 313 312 312 312 313 313 314 314 315 316 317 317 318 318 318 317 317 316 316 315 314 314 314 314 314 315 316 317 318 319 319 318 316 314 311 308 306 303 299 295 286 276 272 270 269 268 268 267 266 266 266 268 270 272 274 276 278 277 274 270 265 261 259 257 255 254 253 253 254 254 254 255 255 256 256 256
311 313 313 314 314 313 313 313 313 313 313 313 314 314 315 315 316 316 317 318 319 319 319 319 318 317 317 316 316 315 315 315 316 317 317 318 320 322 323 324 323 321 318 315 313 312 309 306 302 294 284 278 274 270 268 268 268 268 269 270 271 273 274 276 277 276 274 271 268 265 262 260 258 256 255 254 254 254 255 255 255 256 256 256 257
314 314 315 315 314 314 314 313 313 313 314 314 315 315 316 316 317 317 318 319 320 320 320 319 319 318 318 317 316 316 317 318 318 319 320 321 323 326 327 328 328 325 322 320 318 316 314 311 308 303 296 291 285 279 275 273 272 272 273 273 274 274 275 275 275 273 271 270 269 266 263 261 259 257 256 255 255 256 256 256 256 257 257 257 257
314 315 315 315 315 315 314 313 314 314 315 315 316 316 316 317 318 318 319 320 321 321 321 320 320 319 319 318 317 318 319 320 321 322 323 324 326 329 331 332 332 330 327 323 321 319 317 314 311 308 304 300 296 291 287 283 281 279 278 277 277 277 277 276 275 274 273 272 270 267 264 261 259 257 256 256 256 256 257 257 257 258 257 257 257
314 315 316 315 315 314 314 314 315 315 316 316 316 316 317 318 319 319 320 321 322 322 322 321 321 321 320 318 318 320 321 322 323 324 325 326 328 331 333 335 336 335 332 328 324 321 319 316 312 308 304 301 298 295 292 289 287 286 284 282 281 280 279 278 277 275 273 271 269 266 263 261 259 257 257 257 257 257 258 258 258 258 258 258 258
315 316 316 315 315 314 314 315 316 316 316 317 317 317 318 319 320 320 322 323 323 323 323 323 322 321 320 319 320 321 322 323 324 325 327 328 330 332 335 338 339 338 337 333 329 326 323 319 316 311 306 302 299 295 293 291 290 288 287 285 283 281 280 279 277 275 272 270 267 265 263 261 260 258 258 259 259 259 260 259 259 259 259 259 259
316 316 316 315 315 315 316 317 317 317 317 317 318 318 319 319 320 321 323 324 324 325 325 324 323 321 320 320 321 322 323 324 325 327 328 330 331 333 336 339 341 341 340 338 335 331 327 324 321 318 313 307 303 299 297 295 293 291 289 288 286 285 282 280 277 274 272 269 267 265 264 263 262 262 262 262 262 262 262 262 261 261 260 260 260
316 316 316 315 316 316 317 318 317 318 318 318 319 319 319 320 321 323 324 325 326 327 326 325 323 321 320 320 321 323 324 325 326 327 329 331 332 334 336 339 342 342 342 341 339 336 332 328 325 322 318 313 307 302 299 297 294 292 290 289 288 287 284 281 278 275 273 271 269 268 267 266 266 266 266 265 265 265 264 263 263 262 262 261 261
316 316 316 316 317 318 318 318 318 318 318 319 319 319 320 321 322 324 325 327 328 328 327 326 323 321 320 320 322 324 325 325 326 327 329 331 333 334 336 338 341 342 343 343 342 340 337 333 330 327 324 319 313 308 304 300 297 293 291 289 289 287 284 281 279 277 275 273 272 270 269 268 268 268 268 268 267 266 266 265 265 264 263 262 262
317 317 317 317 318 318 318 318 319 319 319 319 319 319 320 322 323 325 326 328 329 329 328 326 323 321 320 320 322 323 325 326 326 327 329 331 332 334 335 337 339 341 342 343 343 342 340 337 335 331 328 324 319 315 312 308 303 298 294 291 290 287 285 282 280 278 276 275 273 272 270 269 269 269 269 268 268 267 267 266 265 265 264 264 264
317 317 318 318 318 319 319 319 319 319 319 319 319 320 321 322 324 325 327 329 330 330 328 326 323 321 320 320 321 323 325 326 326 327 328 329 331 333 334 335 337 339 340 342 343 342 341 339 337 335 333 329 323 319 317 314 310 305 300 296 293 289 287 284 282 280 278 276 275 273 272 271 270 270 269 269 268 267 266 265 265 265 264 264 265
318 318 318 318 319 319 320 320 320 320 320 320 320 320 321 323 324 326 328 330 331 331 329 327 324 322 320 320 321 322 324 325 326 326 327 328 330 332 333 334 335 336 337 339 340 341 340 339 338 337 335 332 327 322 319 317 313 309 305 302 299 296 292 288 285 282 280 278 276 275 274 273 272 271 270 269 269 268 267 266 265 265 264 265 265
318 318 319 319 320 320 320 321 321 320 320 320 320 321 322 323 325 326 329 331 332 331 330 328 325 322 320 320 321 321 323 325 325 326 326 327 328 329 331 333 334 335 335 336 337 339 339 338 337 337 336 333 330 326 322 318 315 311 308 307 305 303 299 295 291 287 284 282 280 278 276 274 273 272 271 270 269 268 267 267 266 266 266 266 266
318 319 319 320 320 320 321 321 321 321 320 321 321 321 322 324 325 327 329 331 332 332 331 329 326 323 321 320 320 321 322 323 324 325 325 325 326 327 329 330 332 333 333 333 335 336 337 336 336 336 335 334 332 328 324 320 317 314 311 310 308 306 303 299 297 294 291 288 285 282 279 277 274 272 271 269 269 268 268 268 268 267 267 266 265
319 320 320 320 320 321 322 322 322 321 321 321 321 322 323 324 325 327 328 330 332 332 332 330 327 324 321 321 320 321 321 322 323 325 325 325 325 326 327 328 330 331 332 332 332 334 335 334 334 334 334 333 332 330 325 322 320 318 315 313 311 309 305 302 300 298 295 292 289 285 282 279 276 274 272 270 270 270 270 270 269 268 267 266 266
319 320 320 320 321 322 322 323 323 322 322 322 322 323 323 324 325 327 328 330 332 333 332 331 328 325 322 321 321 321 321 322 323 324 324 324 324 325 325 326 327 329 330 330 331 332 333 333 332 332 332 331 331 329 327 323 321 320 318 316 314 311 308 305 303 299 296 293 290 287 285 282 280 278 276 275 274 273 272 272 271 271 269 268 267
319 320 320 321 322 323 323 323 323 323 323 323 323 323 324 324 325 327 328 330 332 333 333 332 330 327 324 322 321 321 321 322 322 323 324 324 324 324 324 325 326 327 328 329 329 331 332 332 331 331 330 330 329 328 327 324 323 322 320 318 316 314 311 309 308 303 298 294 290 288 286 285 284 283 281 280 278 277 275 275 274 273 271 270 269
320 320 321 321 322 323 324 324 324 323 323 323 323 324 324 325 326 327 328 330 332 334 335 334 331 329 326 323 322 322 322 322 322 323 324 325 325 325 325 325 325 326 326 327 328 329 331 331 331 330 329 328 328 327 326 324 324 323 321 319 316 315 314 313 312 308 302 297 293 290 288 286 286 285 283 282 280 279 277 276 275 274 273 272 271
320 320 321 322 323 324 324 324 324 324 324 324 324 324 325 325 326 327 328 330 332 334 335 335 333 331 328 325 323 322 322 322 323 323 324 325 326 326 326 325 326 326 326 326 327 328 329 330 331 330 329 327 326 325 324 324 324 323 322 320 318 317 315 315 314 311 307 302 297 293 289 287 285 283 281 280 279 278 278 277 276 276 275 275 274
320 321 322 323 323 324 324 324 325 325 325 325 325 325 325 326 327 327 329 331 333 335 336 336 335 332 330 327 325 323 323 323 323 324 324 325 325 326 327 327 327 327 327 326 327 327 328 330 331 331 329 328 326 324 323 323 323 323 322 321 321 320 318 316 315 313 309 305 300 296 291 287 284 281 280 280 280 280 280 280 279 278 277 276 275
320 321 322 323 324 324 325 325 326 326 325 325 326 326 326 327 327 328 329 331 334 336 337 338 336 334 332 329 327 325 324 324 324 324 325 325 325 326 327 327 328 329 329 328 328 328 328 329 331 331 330 329 327 325 323 322 322 322 322 322 323 322 320 319 317 313 309 306 303 299 294 290 286 284 283 283 283 283 283 282 281 280 278 277 275
321 322 323 324 324 325 325 326 326 327 326 326 326 327 327 328 328 329 330 332 334 337 338 339 338 336 334 332 329 327 325 324 324 324 324 324 324 325 326 326 327 328 329 329 329 329 329 330 331 331 331 330 328 325 323 322 321 321 321 323 323 323 322 320 318 313 309 305 302 298 295 292 290 289 288 287 286 285 284 283 283 282 280 278 277
321 322 323 324 325 325 326 327 327 327 327 327 327 328 328 329 329 330 331 332 335 337 339 340 340 338 336 334 331 328 325 324 323 323 323 323 323 323 324 325 326 327 328 328 329 329 330 331 332 333 332 332 331 328 325 323 322 321 321 322 323 324 323 321 318 315 311 307 302 299 297 295 294 292 290 288 287 286 286 286 286 285 283 281 279
321 322 323 325 325 326 327 327 328 328 328 328 328 329 329 330 330 331 332 333 335 338 339 341 341 340 338 336 333 330 326 324 323 322 323 323 323 323 324 324 325 326 326 327 327 328 329 330 332 333 334 334 333 330 327 324 322 321 321 321 322 323 323 321 318 316 314 310 306 304 302 300 297 295 293 291 289 288 288 289 289 288 287 285 282
321 322 324 325 325 326 327 328 328 328 328 329 329 329 330 331 331 332 332 334 336 338 340 341 342 342 340 338 335 332 328 325 323 322 322 322 323 324 325 325 325 326 326 326 327 327 328 329 330 332 334 334 334 332 329 326 324 322 321 321 322 323 321 319 318 316 314 311 308 306 303 300 298 297 295 294 292 291 291 291 291 291 290 289 287